sat.trackr.live / text

‹ back to catalog

STARLINK-34374

NORAD 64308 · 2025-123T

PAYLOAD ACTIVE UNKNOWN

§ Identity

Operator
Country
US
Launch date
2025-06-08
Launch site
AFWTR
Launch vehicle
Mass (kg)
RCS (m²)

Purposes: comms

External: N2YO · Heavens-Above · Gunter

§ Orbital elements

Epoch: 2026-05-25T01:04:17.823072Z

Period
96.11 min
Inclination
70.0018°
Eccentricity
0.0002552
Mean motion
14.98338300 rev/d
Perigee alt
570.3 km
Apogee alt
573.8 km
Semi-major
6,950.2 km
B*
2.7959e-4
RAAN
2.0213°
Arg perigee
269.1242°
Mean anomaly
90.9624°
Rev number
5,305

§ Raw data

STARLINK-343741 64308U 25123T   26145.04465073  .00003245  00000+0  27959-3 0  99992 64308  70.0018   2.0213 0002552 269.1242  90.9624 14.98338300 53059

JSON: /api/v1/satellites/64308 · /tle

For live sub-satellite position, see the globe view (requires WebGL).

§ Visibility from observer

Set your observer location to see the next 7 days of passes ≥ 10°. The values pass through the URL so the page stays shareable.

No JS? Fill the form by hand. The geolocation button needs JavaScript.